This demonstration page uses our WeatherBlox Daily Observations layout. Learn more.

Left ArrowRight Arrow

39.92423, -83.80882

Hourly Observations for March 13, 2023

Temp ( °F °C ) Dew Point ( °F °C ) Humidity (%) Winds ( mph kmh ) Pressure ( in mb ) Visibility ( mi km ) Precip ( " mm )
12:51 am 00:51 Cloudy with Light Wintry Mix 34 1 30 -1 86 86 WNW 6 9 29.96 1015 8 13 0.01 0.13
12:56 am 00:56 Cloudy with Light Wintry Mix 33 0.6 31 -0.6 92 92 WNW 6 9 29.95 1014 8 13 0.01 0.13
1:56 am 01:56 Cloudy with Light Wintry Mix 33 0.6 31 -0.6 92 92 W 6 9 29.94 1014 7 11 0.01 0.13
2:26 am 02:26 Cloudy with Light Rain N/A N/A N/A W 7 11 29.97 1015 8 13 0.01 0.13
2:53 am 02:53 Cloudy with Light Rain 34 1 30 -1 86 86 W 6 9 29.97 1015 8 13 0.01 0.13
2:56 am 02:56 Cloudy with Light Rain 33 0.6 31 -0.6 92 92 W 6 9 29.95 1014 8 13 0.01 0.13
3:26 am 03:26 Cloudy with Light Rain 34 1 30 -1 86 86 W 5 7 29.96 1015 8 13 0.01 0.13
3:56 am 03:56 Cloudy with Light Rain 33 0.6 31 -0.6 92 92 W 6 9 29.94 1014 8 13 0.01 0.13
4:14 am 04:14 Cloudy with Light Snow 34 1 30 -1 86 86 WSW 6 9 29.96 1015 7 11 0.01 0.13
4:37 am 04:37 Cloudy with Light Rain 34 1 30 -1 86 86 W 7 11 29.95 1014 8 13 0.01 0.13
4:56 am 04:56 Cloudy with Light Rain 33 0.6 31 -0.6 92 92 W 7 11 29.93 1014 7 11 0.01 0.13
5:18 am 05:18 Cloudy with Light Snow 34 1 32 0 93 93 W 8 13 29.95 1014 6 10 0.01 0.13
5:24 am 05:24 Cloudy with Light Rain 34 1 32 0 93 93 W 8 13 29.95 1014 6 10 0.01 0.13
5:31 am 05:31 Cloudy with Light Rain 34 1 32 0 93 93 W 7 11 29.95 1014 7 11 0.01 0.13
5:56 am 05:56 Cloudy with Light Rain 33 0.6 32 0 96 96 W 10 17 29.94 1014 6 10 0.01 0.13
6:41 am 06:41 Cloudy with Light Rain 34 1 30 -1 86 86 WNW 16 26 29.97 1015 10 16 0.01 0.13
6:56 am 06:56 Cloudy with Light Rain 32 0 30 -1.1 92 92 W 13 20 29.95 1014 10 16 0.01 0.13
7:56 am 07:56 Cloudy 31 -0.6 26 -3.3 82 82 W 14 22 29.97 1015 10 16 0.01 0.13
8:56 am 08:56 Cloudy 31 -0.6 26 -3.3 82 82 W 15 24 29.99 1016 10 16 0.00 0.00
9:56 am 09:56 Cloudy with Light Snow 30 -1.1 23 -5 75 75 WNW 16 26 30.01 1016 9 14 0.01 0.13
10:44 am 10:44 Cloudy with Light Snow 30 -1 21 -6 69 69 W 16 26 30.04 1017 9 14 0.01 0.13
10:56 am 10:56 Cloudy 31 -0.6 21 -6.1 66 66 W 14 22 30.02 1017 9 14 0.01 0.13
11:56 am 11:56 Cloudy with Light Snow 31 -0.6 23 -5 72 72 WNW 17 28 30.02 1017 9 14 0.01 0.13
12:39 pm 12:39 Cloudy with Light Snow 30 -1 23 -5 74 74 W 14 22 30.05 1018 8 13 0.01 0.13
12:56 pm 12:56 Cloudy with Light Snow 31 -0.6 23 -5 72 72 W 14 22 30.02 1017 9 14 0.01 0.13
1:14 pm 13:14 Cloudy with Light Wintry Mix 32 0 21 -6 64 64 W 16 26 30.04 1017 10 16 0.01 0.13
1:56 pm 13:56 Cloudy 33 0.6 21 -6.1 61 61 WNW 13 20 30.01 1016 10 16 0.01 0.13
2:56 pm 14:56 Cloudy with Light Snow 30 -1.1 27 -2.8 88 88 W 13 20 30.01 1016 2 3 0.01 0.13
3:02 pm 15:02 Cloudy with Light Snow 32 0 28 -2 86 86 W 13 20 30.03 1017 4 6 0.01 0.13
3:28 pm 15:28 Mostly Cloudy with Rain 34 1 27 -3 75 75 W 26 43 30.02 1017 3 4 0.01 0.13
3:36 pm 15:36 Mostly Cloudy with Light Snow 34 1 30 -1 86 86 WSW 15 24 30.02 1017 2 3 0.01 0.13
3:38 pm 15:38 Mostly Cloudy with Light Snow 34 1 30 -1 86 86 WSW 16 26 30.02 1017 3 5 0.01 0.13
3:56 pm 15:56 Cloudy 35 1.7 26 -3.3 69 69 W 18 30 30.00 1016 10 16 0.01 0.13
4:07 pm 16:07 Cloudy with Light Rain 36 2 27 -3 69 69 W 21 33 30.00 1016 10 16 0.01 0.13
4:31 pm 16:31 Mostly Cloudy 36 2 23 -5 60 60 W 18 30 30.00 1016 10 16 0.01 0.13
4:56 pm 16:56 Windy with Snow Likely 33 0.6 25 -3.9 72 72 W 24 39 30.01 1016 2 3 0.01 0.13
5:02 pm 17:02 Cloudy with Light Snow 30 -1 28 -2 93 93 W 17 28 30.04 1017 1 2 0.01 0.13
5:06 pm 17:06 Cloudy with Light Snow 32 0 28 -2 86 86 W 15 24 30.03 1017 2 3 0.01 0.13
5:09 pm 17:09 Cloudy with Light Snow 32 0 27 -3 80 80 W 15 24 30.03 1017 3 5 0.01 0.13
5:56 pm 17:56 Cloudy with Light Snow 31 -0.6 27 -2.8 85 85 W 18 30 30.02 1017 3 4 0.01 0.13
6:07 pm 18:07 Cloudy 32 0 28 -2 86 86 WNW 15 24 30.03 1017 9 14 0.01 0.13
6:17 pm 18:17 Cloudy with Light Snow 32 0 27 -3 80 80 W 17 28 30.04 1017 3 4 0.01 0.13
6:31 pm 18:31 Cloudy with Light Snow 32 0 28 -2 86 86 WNW 10 17 30.04 1017 9 14 0.01 0.13
6:40 pm 18:40 Cloudy with Light Wintry Mix 32 0 27 -3 80 80 W 14 22 30.04 1017 10 16 0.01 0.13
6:56 pm 18:56 Mostly Cloudy 32 0 25 -3.9 75 75 WNW 15 24 30.03 1017 10 16 0.01 0.13
7:05 pm 19:05 Cloudy 32 0 25 -4 74 74 WNW 20 31 30.04 1017 10 16 0.00 0.00
7:15 pm 19:15 Cloudy with Light Snow 32 0 27 -3 80 80 W 16 26 30.05 1018 3 4 0.01 0.13
7:20 pm 19:20 Cloudy with Light Snow 30 -1 27 -3 86 86 W 14 22 30.07 1018 3 5 0.01 0.13
7:56 pm 19:56 Partly Cloudy 30 -1.1 26 -3.3 85 85 W 13 20 30.05 1018 10 16 0.01 0.13
8:49 pm 20:49 Cloudy with Light Snow 30 -1 28 -2 93 93 WNW 9 15 30.09 1019 5 8 0.01 0.13
8:56 pm 20:56 Cloudy with Light Snow 31 -0.6 28 -2.2 89 89 WNW 12 19 30.07 1018 4 6 0.01 0.13
9:05 pm 21:05 Cloudy with Light Snow 30 -1 28 -2 93 93 WNW 10 17 30.09 1019 3 5 0.01 0.13
9:14 pm 21:14 Cloudy with Light Snow 30 -1 28 -2 93 93 WNW 9 15 30.10 1019 9 14 0.01 0.13
9:56 pm 21:56 Cloudy with Light Wintry Mix 31 -0.6 26 -3.3 82 82 WNW 15 24 30.09 1019 10 16 0.01 0.13
10:05 pm 22:05 Cloudy with Light Wintry Mix 30 -1 25 -4 80 80 NW 20 31 30.11 1020 10 16 0.01 0.13
10:56 pm 22:56 Cloudy with Light Wintry Mix 30 -1.1 23 -5 75 75 NW 20 31 30.11 1020 10 16 0.01 0.13
11:32 pm 23:32 Cloudy with Light Snow 28 -2 21 -6 74 74 NW 15 24 30.14 1021 9 14 0.01 0.13
11:56 pm 23:56 Cloudy with Light Snow 29 -1.7 22 -5.6 75 75 NW 16 26 30.12 1020 10 16 0.01 0.13

Powered by Vaisala Xweather